Hourly Data Report for March 15, 2021

KUGAARUK CLIMATE
NUNAVUT
Current Station Operator: ECCC - MSC

68°32'15.060" N
89°47'47.020" W
15.80 m
2303094
71407
NBB

Download Data

Hourly Data (March 2021)
Hourly Data Report for March 15, 2021
TIME
LST
Temp Definition
°C
Dew Point Definition
°C
Rel Hum Definition
%
Precip. Amount Definition
mm

Wind Dir Definition
10's deg

Wind Spd Definition
km/h
Visibility Definition
km
Stn Press Definition
kPa
Hmdx Definition


Wind Chill Definition


Weather Definition


00:00 -28.0 -31.7 71 0.0 25 23   102.66   -41 LegendNANA
01:00 -27.7 -31.5 70 0.0 23 21   102.64   -40 LegendNANA
02:00 -28.1 -31.7 71 0.0 24 27   102.57   -42 LegendNANA
03:00 -28.5 -32.2 70 0.0 24 28   102.51   -43 LegendNANA
04:00 -29.6 -33.6 68 0.0 23 29   102.42   -45 LegendNANA
05:00 -29.8 -33.4 71 0.0 24 34   102.39   -46 LegendNANA
06:00 -29.4 -33.2 70 0.0 23 31   102.30   -45 LegendNANA
07:00 -29.9 -33.9 68 0.0 23 46   102.19   -48 LegendNANA
08:00 -29.6 -33.7 67 0.0 24 45   102.11   -48 LegendNANA
09:00 -29.1 -33.4 66 0.0 23 46   101.99   -47 LegendNANA
10:00 -28.3 -33.0 64 0.0 23 32   101.98   -44 LegendNANA
11:00 -27.3 -31.8 65 0.0 23 38   101.82   -44 LegendNANA
12:00 -26.3 -30.8 66 0.0 23 38   101.66   -42 LegendNANA
13:00 -25.2 -29.8 65 0.0 24 36   101.61   -40 LegendNANA
14:00 -24.7 -30.1 61 0.0 21 15   101.60   -35 LegendNANA
15:00 -26.1 -30.3 68 0.0 25 35   101.45   -41 LegendNANA
16:00 -26.3 -30.2 70 0.0 27 35   101.39   -42 LegendNANA
17:00 -26.9 -30.2 73 0.0 23 33   101.32   -42 LegendNANA
18:00 -27.7 -31.2 72 0.0 23 26   101.27   -42 LegendNANA
19:00 -27.2 -30.7 73 0.0 24 25   101.18   -41 LegendNANA
20:00 -28.2 -31.8 71 0.0 26 10   101.17   -37 LegendNANA
21:00 -28.2 -32.0 70 0.0 23 24   101.09   -42 LegendNANA
22:00 -27.7 -31.1 73 0.0 28 11   101.01   -37 LegendNANA
23:00 -27.2 -30.6 73 0.0 22 22   100.89   -40 LegendNANA

Notes on Data Quality.

Legend

  • E = Estimated
  • M = Missing
  • NA = Not Available*
  • [empty] = Indicates an unobserved value
Date modified: